Location: Carnières
(50.1682°N, 3.3474°E)
Time: 13:01:39
(UTC+00:00)

Cosmos 1908 - Pass Details

Date: 23 May 2024
Orbit: 466 x 481 km, 82.5° (Epoch: 18 June)

Event Time Altitude Azimuth Distance (km) Brightness Sun altitude
Rises 00:12:02 0° 341° (NNW) 2,517 7.8 -18.9°
Reaches altitude 10° 00:14:16 10° 330° (NNW) 1,635 6.5 -18.9°
Maximum altitude 00:17:25 30° 268° (W) 868 4.2 -18.8°
Enters shadow 00:17:45 29° 257° (WSW) 880 4.1 -18.8°
